,

(GMT )
Banff

Weather History for CWZG - January, 2014

Change the Weather History Date:

Monday, January 6, 2014

  Actual Average Record
Temperature  
Mean Temperature 9 °F -  
Max Temperature 14 °F - - ()
Min Temperature 4 °F - - ()
Degree Days  
Heating Degree Days 56    
Moisture  
Dew Point 3 °F    
Average Humidity 79    
Maximum Humidity 85    
Minimum Humidity 71    
Precipitation  
Precipitation 0.28 in - - ()
Sea Level Pressure  
Sea Level Pressure 30.40 in    
Wind  
Wind Speed 11 mph ()    
Max Wind Speed 18 mph    
Max Gust Speed 30 mph    
T = Trace of Precipitation, MM = Missing Value Source: Averaged Metar Reports

Daily Weather History Graph

Daily Weather History Graph

Search for Another Location

Airport or City:

Trip Planner

Search our weather history database for the weather conditions in past years. The results will help you decide how hot, cold, wet, or windy it might be!

Date:

Astronomy

Jan. 06, 2014 Rise Set
Actual Time 8:45 AM MST 4:51 PM MST
Civil Twilight 8:05 AM MST 5:30 PM MST
Nautical Twilight 7:23 AM MST 6:12 PM MST
Astronomical Twilight 6:43 AM MST 6:53 PM MST
Moon 11:18 AM MST No Moon Set
Length of Visible Light 9h 24m
Length of Day
8h 06m
Waxing Crescent, 35% of the Moon is Illuminated
Jan 6
Waxing Crescent
Jan 7
First Quarter
Jan 15
Full
Jan 23
Last Quarter
Jan 30
New

Hourly Weather History & Observations

Time (MST) Temp. Windchill Dew Point Humidity Pressure Visibility Wind Dir Wind Speed Gust Speed Precip Events Conditions
12:00 AM 4.8 °F -8.3 °F 0.1 °F 81% 30.60 in - West 8.1 mph 18.4 mph N/A   Unknown
1:00 AM 5.4 °F -11.8 °F -0.0 °F 78% 30.58 in - WSW 13.8 mph 24.2 mph N/A   Unknown
2:00 AM 4.6 °F -9.5 °F -0.6 °F 79% 30.57 in - South 9.2 mph - N/A   Unknown
3:00 AM 4.6 °F -4.5 °F 0.5 °F 83% 30.56 in - West 4.6 mph - N/A   Unknown
4:00 AM 5.5 °F -10.2 °F 0.9 °F 81% 30.52 in - WSW 11.5 mph 21.9 mph N/A   Unknown
5:00 AM 4.5 °F -15.4 °F -0.2 °F 81% 30.52 in - SW 18.4 mph 25.3 mph N/A   Unknown
6:00 AM 4.5 °F -14.9 °F -0.0 °F 82% 30.49 in - SW 17.3 mph 26.5 mph N/A   Unknown
7:00 AM 4.5 °F -14.3 °F -0.6 °F 80% 30.50 in - WSW 16.1 mph 26.5 mph N/A   Unknown
8:00 AM 4.5 °F -15.4 °F -0.6 °F 80% 30.49 in - WSW 18.4 mph 29.9 mph N/A   Unknown
9:00 AM 5.0 °F -14.7 °F -0.0 °F 80% 30.47 in - WSW 18.4 mph 26.5 mph N/A   Unknown
10:00 AM 6.3 °F -11.3 °F 0.7 °F 78% 30.46 in - WSW 15.0 mph 24.2 mph N/A   Unknown
11:00 AM 7.9 °F -7.2 °F 1.0 °F 74% 30.44 in - SW 11.5 mph 25.3 mph N/A   Unknown
12:00 PM 10.2 °F -5.0 °F 3.0 °F 73% 30.39 in - SW 12.7 mph 20.7 mph N/A   Unknown
1:00 PM 12.2 °F -3.7 °F 4.5 °F 71% 30.34 in - SW 15.0 mph 24.2 mph N/A   Unknown
2:00 PM 14.2 °F -1.7 °F 6.3 °F 71% 30.30 in - SW 16.1 mph 25.3 mph N/A   Unknown
3:00 PM 14.0 °F -0.8 °F 7.0 °F 74% 30.27 in - SW 13.8 mph 24.2 mph N/A   Unknown
4:00 PM 13.6 °F -1.3 °F 7.0 °F 75% 30.27 in - SW 13.8 mph 24.2 mph N/A   Unknown
5:00 PM 12.6 °F 0.2 °F 6.6 °F 77% 30.28 in - WSW 9.2 mph 21.9 mph N/A   Unknown
6:00 PM 11.5 °F -1.1 °F 7.7 °F 85% 30.29 in - SW 9.2 mph - N/A   Unknown
7:00 PM 10.6 °F -1.3 °F 5.7 °F 81% 30.29 in - WSW 8.1 mph 19.6 mph N/A   Unknown
8:00 PM 10.9 °F -2.6 °F 5.5 °F 79% 30.28 in - West 10.4 mph 18.4 mph N/A   Unknown
9:00 PM 10.0 °F -2.9 °F 5.4 °F 81% 30.27 in - West 9.2 mph 17.3 mph N/A   Unknown
10:00 PM 9.3 °F -3.8 °F 4.6 °F 81% 30.26 in - WSW 9.2 mph 17.3 mph N/A   Unknown
11:00 PM 9.1 °F -4.0 °F 4.6 °F 82% 30.25 in - WSW 9.2 mph 17.3 mph N/A   Unknown